• In Hungary
  • List of Countries
  • For 7 days
  • Water Temperature
  • Satellite Maps
  • Weather Map
  • News
  • Weather Widgets
  • user-avatar
    Login

    Hourly Weather Smolan

    Today, 23 October, Monday

    Time Temperature Precipitation Wind Pressure Humidity
    00:00 +9°C° 0 mm 1 mps 653 mmHg 76%
    01:00 +9°C° 0 mm 1 mps 653 mmHg 76%
    02:00 +8°C° 0 mm 1 mps 652 mmHg 75%
    03:00 +8°C° 0 mm 1 mps 652 mmHg 76%
    04:00 +8°C° 0 mm 1 mps 651 mmHg 76%
    05:00 +7°C° 0 mm 1 mps 651 mmHg 77%
    06:00 +8°C° 0 mm 1 mps 651 mmHg 75%
    07:00 +8°C° 0 mm 1 mps 650 mmHg 74%
    08:00 +8°C° 0 mm 2 mps 650 mmHg 71%
    09:00 +10°C° 0 mm 2 mps 650 mmHg 65%
    10:00 +12°C° 0 mm 3 mps 651 mmHg 60%
    11:00 +14°C° 0 mm 3 mps 651 mmHg 55%
    12:00 +13°C° 0.1 mm 3 mps 650 mmHg 58%
    13:00 +13°C° 0.1 mm 3 mps 650 mmHg 61%
    14:00 +12°C° 0 mm 3 mps 649 mmHg 68%
    15:00 +11°C° 0.7 mm 3 mps 649 mmHg 73%
    16:00 +10°C° 0.7 mm 2 mps 648 mmHg 79%
    17:00 +11°C° 0.7 mm 1 mps 648 mmHg 84%
    18:00 +10°C° 1 mm 1 mps 647 mmHg 86%
    19:00 +9°C° 1 mm 2 mps 647 mmHg 88%
    20:00 +9°C° 1 mm 2 mps 646 mmHg 90%
    21:00 +9°C° 0.9 mm 1 mps 646 mmHg 90%
    22:00 +9°C° 0.9 mm 1 mps 646 mmHg 91%
    23:00 +9°C° 0.9 mm 1 mps 645 mmHg 92%

    Tomorrow, 24 October, Tuesday

    Time Temperature Precipitation Wind Pressure Humidity
    00:00 +9°C° 1.3 mm 1 mps 645 mmHg 92%
    01:00 +8°C° 1.3 mm 1 mps 645 mmHg 92%
    02:00 +8°C° 1.3 mm 1 mps 645 mmHg 93%
    03:00 +7°C° 1.1 mm 2 mps 645 mmHg 93%
    04:00 +7°C° 1.1 mm 2 mps 644 mmHg 93%
    05:00 +6°C° 1.1 mm 2 mps 644 mmHg 92%
    06:00 +7°C° 0.6 mm 2 mps 645 mmHg 91%
    07:00 +8°C° 0.6 mm 1 mps 645 mmHg 90%
    08:00 +8°C° 0.6 mm 1 mps 645 mmHg 89%
    09:00 +8°C° 0.4 mm 2 mps 646 mmHg 84%
    10:00 +8°C° 0.4 mm 2 mps 646 mmHg 79%
    11:00 +9°C° 0.4 mm 2 mps 647 mmHg 74%
    12:00 +9°C° 0.4 mm 2 mps 647 mmHg 72%
    13:00 +10°C° 0.4 mm 2 mps 647 mmHg 70%
    14:00 +10°C° 0.4 mm 2 mps 648 mmHg 69%
    15:00 +9°C° 0.2 mm 2 mps 648 mmHg 72%
    16:00 +10°C° 0.2 mm 1 mps 648 mmHg 75%
    17:00 +9°C° 0.2 mm 1 mps 648 mmHg 77%
    18:00 +9°C° 0.3 mm 1 mps 648 mmHg 81%
    19:00 +8°C° 0.3 mm 1 mps 649 mmHg 84%
    20:00 +7°C° 0.3 mm 1 mps 649 mmHg 87%
    21:00 +7°C° 0.1 mm 1 mps 650 mmHg 88%
    22:00 +5°C° 0.1 mm 2 mps 650 mmHg 88%
    23:00 +5°C° 0.1 mm 2 mps 651 mmHg 89%

    Day after tomorrow, 25 October, Wednesday

    Time Temperature Precipitation Wind Pressure Humidity
    00:00 +5°C° 0.1 mm 2 mps 651 mmHg 89%
    01:00 +5°C° 0.1 mm 2 mps 651 mmHg 90%
    02:00 +5°C° 0.1 mm 2 mps 652 mmHg 90%
    03:00 +4°C° 0.1 mm 3 mps 652 mmHg 89%
    04:00 +4°C° 0.1 mm 3 mps 652 mmHg 89%
    05:00 +4°C° 0.1 mm 3 mps 653 mmHg 88%
    06:00 +4°C° 0.4 mm 3 mps 653 mmHg 88%
    07:00 +4°C° 0.4 mm 3 mps 654 mmHg 87%
    08:00 +5°C° 0.4 mm 3 mps 655 mmHg 87%
    09:00 +5°C° 0.9 mm 3 mps 656 mmHg 87%
    10:00 +4°C° 0.9 mm 4 mps 656 mmHg 87%
    11:00 +4°C° 0.9 mm 4 mps 657 mmHg 87%
    12:00 +4°C° 0.5 mm 4 mps 657 mmHg 86%
    13:00 +4°C° 0.5 mm 4 mps 657 mmHg 84%
    14:00 +4°C° 0.5 mm 4 mps 658 mmHg 83%
    15:00 +4°C° 0.1 mm 4 mps 658 mmHg 84%
    16:00 +3°C° 0.1 mm 4 mps 658 mmHg 84%
    17:00 +3°C° 0.1 mm 4 mps 658 mmHg 84%
    18:00 +3°C° 0 mm 3 mps 659 mmHg 85%
    19:00 +3°C° 0 mm 3 mps 659 mmHg 85%
    20:00 +2°C° 0 mm 3 mps 660 mmHg 85%
    21:00 +2°C° 0 mm 3 mps 660 mmHg 85%
    22:00 +2°C° 0 mm 3 mps 661 mmHg 85%
    23:00 +2°C° 0 mm 3 mps 661 mmHg 85%

    26 October, Thursday

    Time Temperature Precipitation Wind Pressure Humidity
    00:00 +3°C° 0 mm 2 mps 661 mmHg 86%
    01:00 +3°C° 0 mm 2 mps 661 mmHg 86%
    02:00 +2°C° 0 mm 2 mps 661 mmHg 87%
    03:00 +2°C° 0 mm 2 mps 661 mmHg 87%
    04:00 +2°C° 0 mm 2 mps 661 mmHg 87%
    05:00 +2°C° 0 mm 2 mps 661 mmHg 87%
    06:00 +2°C° 0 mm 2 mps 661 mmHg 85%
    07:00 +3°C° 0 mm 2 mps 662 mmHg 82%
    08:00 +4°C° 0 mm 2 mps 662 mmHg 80%
    09:00 +7°C° 0 mm 1 mps 663 mmHg 72%
    10:00 +9°C° 0 mm 1 mps 663 mmHg 64%
    11:00 +11°C° 0 mm 1 mps 664 mmHg 56%
    12:00 +12°C° 0 mm 1 mps 664 mmHg 55%
    13:00 +12°C° 0 mm 1 mps 663 mmHg 53%
    14:00 +13°C° 0 mm 1 mps 663 mmHg 51%
    15:00 +12°C° 0 mm 1 mps 663 mmHg 57%
    16:00 +10°C° 0 mm 1 mps 662 mmHg 62%
    17:00 +9°C° 0 mm 1 mps 662 mmHg 68%
    18:00 +8°C° 0 mm 1 mps 662 mmHg 71%
    19:00 +7°C° 0 mm 1 mps 661 mmHg 75%
    20:00 +6°C° 0 mm 1 mps 661 mmHg 78%
    21:00 +6°C° 0 mm 1 mps 661 mmHg 78%
    22:00 +6°C° 0 mm 1 mps 661 mmHg 78%
    23:00 +6°C° 0 mm 1 mps 661 mmHg 78%

    27 October, Friday

    Time Temperature Precipitation Wind Pressure Humidity
    00:00 +6°C° 0 mm 1 mps 661 mmHg 76%
    01:00 +5°C° 0 mm 1 mps 660 mmHg 75%
    02:00 +5°C° 0 mm 1 mps 660 mmHg 73%
    03:00 +5°C° 0 mm 1 mps 660 mmHg 71%
    04:00 +5°C° 0 mm 1 mps 659 mmHg 69%
    05:00 +5°C° 0 mm 1 mps 659 mmHg 67%
    06:00 +6°C° 0 mm 1 mps 659 mmHg 64%
    07:00 +6°C° 0 mm 1 mps 659 mmHg 62%
    08:00 +7°C° 0 mm 1 mps 659 mmHg 60%
    09:00 +9°C° 0 mm 1 mps 660 mmHg 54%
    10:00 +12°C° 0 mm 1 mps 660 mmHg 48%
    11:00 +14°C° 0 mm 1 mps 660 mmHg 41%
    12:00 +14°C° 0 mm 1 mps 660 mmHg 41%
    13:00 +15°C° 0 mm 1 mps 659 mmHg 40%
    14:00 +15°C° 0 mm 1 mps 659 mmHg 39%
    15:00 +14°C° 0 mm 1 mps 658 mmHg 46%
    16:00 +13°C° 0 mm 1 mps 657 mmHg 53%
    17:00 +11°C° 0 mm 1 mps 656 mmHg 60%
    18:00 +10°C° 0 mm 1 mps 655 mmHg 62%
    19:00 +9°C° 0 mm 1 mps 655 mmHg 64%
    20:00 +8°C° 0 mm 1 mps 655 mmHg 67%
    21:00 +8°C° 0 mm 1 mps 654 mmHg 66%
    22:00 +8°C° 0 mm 1 mps 654 mmHg 66%
    23:00 +8°C° 0 mm 1 mps 653 mmHg 65%

    28 October, Saturday

    Time Temperature Precipitation Wind Pressure Humidity
    00:00 +8°C° 0 mm 1 mps 653 mmHg 64%
    01:00 +8°C° 0 mm 1 mps 652 mmHg 63%
    02:00 +8°C° 0 mm 1 mps 652 mmHg 62%
    03:00 +8°C° 0 mm 1 mps 651 mmHg 62%
    04:00 +8°C° 0 mm 1 mps 651 mmHg 61%
    05:00 +7°C° 0 mm 1 mps 650 mmHg 61%
    06:00 +8°C° 0 mm 1 mps 650 mmHg 60%
    07:00 +8°C° 0 mm 1 mps 651 mmHg 59%
    08:00 +9°C° 0 mm 1 mps 651 mmHg 58%
    09:00 +10°C° 0 mm 1 mps 651 mmHg 54%
    10:00 +12°C° 0 mm 1 mps 652 mmHg 50%
    11:00 +13°C° 0 mm 1 mps 652 mmHg 46%
    12:00 +13°C° 0 mm 2 mps 652 mmHg 49%
    13:00 +12°C° 0 mm 2 mps 652 mmHg 52%
    14:00 +12°C° 0 mm 2 mps 652 mmHg 54%
    15:00 +10°C° 0.2 mm 2 mps 652 mmHg 61%
    16:00 +9°C° 0.2 mm 2 mps 651 mmHg 68%
    17:00 +7°C° 0.2 mm 2 mps 651 mmHg 75%
    18:00 +7°C° 0.3 mm 2 mps 651 mmHg 78%
    19:00 +7°C° 0.3 mm 1 mps 652 mmHg 81%
    20:00 +6°C° 0.3 mm 1 mps 652 mmHg 84%
    21:00 +6°C° 0.3 mm 1 mps 652 mmHg 84%
    22:00 +6°C° 0.3 mm 1 mps 652 mmHg 84%
    23:00 +6°C° 0.3 mm 1 mps 652 mmHg 84%

    29 October, Sunday

    Time Temperature Precipitation Wind Pressure Humidity
    00:00 +5°C° 0.5 mm 1 mps 652 mmHg 84%
    01:00 +5°C° 0.5 mm 1 mps 651 mmHg 84%
    02:00 +5°C° 0.5 mm 1 mps 651 mmHg 84%
    03:00 +4°C° 0.6 mm 2 mps 651 mmHg 85%
    04:00 +3°C° 0.6 mm 2 mps 651 mmHg 85%
    05:00 +3°C° 0.6 mm 2 mps 650 mmHg 85%
    06:00 +3°C° 0.9 mm 2 mps 650 mmHg 85%
    07:00 +3°C° 0.9 mm 2 mps 650 mmHg 85%
    08:00 +2°C° 0.9 mm 2 mps 650 mmHg 85%
    09:00 +2°C° 1.1 mm 2 mps 649 mmHg 85%
    10:00 +1°C° 1.1 mm 3 mps 649 mmHg 84%
    11:00 +1°C° 1.1 mm 3 mps 649 mmHg 83%
    12:00 +1°C° 0.8 mm 3 mps 649 mmHg 82%
    13:00 +1°C° 0.8 mm 3 mps 648 mmHg 81%
    14:00 +1°C° 0.8 mm 3 mps 648 mmHg 79%
    15:00 +1°C° 0.6 mm 3 mps 647 mmHg 79%
    16:00 +1°C° 0.6 mm 3 mps 647 mmHg 80%
    17:00 +1°C° 0.6 mm 3 mps 647 mmHg 80%
    18:00 +2°C° 0.1 mm 2 mps 647 mmHg 80%
    19:00 +1°C° 0.1 mm 2 mps 648 mmHg 80%
    20:00 +1°C° 0.1 mm 2 mps 648 mmHg 80%
    21:00 +1°C° 0 mm 2 mps 648 mmHg 81%
    22:00 -1°C° 0 mm 2 mps 648 mmHg 81%
    23:00 -1°C° 0 mm 2 mps 648 mmHg 82%
    Show more